User: anonymous   Login
Location: Unspecified
(0.0000°N, 0.0000°E)
Time: 19:46:15
(UTC+02:00)
Language:

GP-B - Orbit

View from above orbital plane
View from above orbital plane
View from above satellite
View from above satellite

Ground track
Ground track

The orbit data is extracted from the following two-line orbital elements,

1 28230U 04014A   15208.29524334  .00000222  00000-0  28399-4 0  9993
2 28230 089.8770 134.0688 0003371 094.3729 265.7879 14.78202123607023
Epoch (UTC): 27 July 2015 07:05:09
Eccentricity: 0.0003371
inclination: 89.8770°
perigee height: 632 km
apogee height: 637 km
right ascension of ascending node: 134.0688°
argument of perigee: 94.3729°
revolutions per day: 14.78202123
mean anomaly at epoch: 265.7879°
orbit number at epoch: 60702

The dashed part of the orbit path shows where the satellite is in the earth's shadow,  

DLR